Flag for Puerto Rico Weather past 2 weeks in Caguas, Puerto Rico

Now
75 °F

Passing clouds.


Feels Like: 74 °F
Forecast: 71 / 87 °F
Wind: No wind

Location: Luis Munoz Marin

Current Time: Apr 18, 2015 at 5:05:28 AM

Latest Report: Apr 18, 2015 at 3:56 AM


Visibility: 10 mi

Pressure: 30.00 "Hg

Humidity: 90%

Dew point: 72 °F

Location of CaguasLocation

Historic Weather in Caguas — Graph

°F

Caguas temperature yesterday

Maximum temperature yesterday: 82 °F (at 1:56 PM)
Minimum temperature yesterday: 76 °F (at 9:56 PM)
Average temperature yesterday: 79 °F

Past Weeks' High & Low Weather Summary

 TemperatureHumidityPressure
High86 °F (Apr 11, 11:56 AM)97% (Apr 10, 6:56 AM)30.14 "Hg (Apr 10, 6:56 AM)
Low73 °F (Apr 4, 5:56 AM)53% (Apr 3, 1:56 PM)29.93 "Hg (Apr 5, 3:56 AM)
Average79 °F77%30.04 "Hg
* Reported Apr 3 3:56 AM — Apr 18 3:56 AM, Caguas, Weather by CustomWeather, © 2015

Note: Actual official high and low records may vary slightly from our data, if they occured in-between our weather recording intervals... More about our weather records

Advertising

Caguas weather history for previous 24 hours

 ConditionsComfort  
Time TempWeatherWind HumidityBarometerVisibility
3:56 AM
Sat, Apr 18
75 °FPassing clouds.No wind90%30.00 "Hg10 mi
2:56 AM75 °FPassing clouds.No wind90%30.01 "Hg10 mi
1:56 AM75 °FPassing clouds.3 mph90%30.03 "Hg10 mi
12:56 AM76 °FPassing clouds.5 mph91%30.05 "Hg10 mi
11:56 PM
Fri, Apr 17
76 °FPassing clouds.5 mph94%30.06 "Hg10 mi
10:56 PM76 °FPassing clouds.3 mph91%30.07 "Hg10 mi
9:56 PM76 °FPassing clouds.6 mph94%30.06 "Hg10 mi
8:56 PM77 °FPassing clouds.8 mph90%30.04 "Hg10 mi
7:56 PM78 °FPassing clouds.14 mph84%30.02 "Hg10 mi
6:56 PM78 °FScattered clouds.13 mph82%30.01 "Hg10 mi
5:56 PM79 °FScattered clouds.18 mph79%30.00 "Hg10 mi
4:56 PM81 °FScattered clouds.15 mph77%29.99 "Hg10 mi
3:56 PM82 °FScattered clouds.20 mph74%29.99 "Hg10 mi
2:56 PM82 °FScattered clouds.22 mph72%30.00 "Hg10 mi
1:56 PM82 °FScattered clouds.20 mph74%30.03 "Hg10 mi
12:56 PM81 °FScattered clouds.14 mph82%30.05 "Hg10 mi
11:56 AM81 °FScattered clouds.16 mph79%30.07 "Hg10 mi
10:56 AM81 °FBroken clouds.21 mph94%30.09 "Hg10 mi
Weather by CustomWeather, © 2015

See weather overviewHow to use our weather pages